COSMOS 2389

Satellite information

Favourite Embed

Satellite Type and Status

PAYLOADIN ORBIT

Key statistics

Satellite COSMOS 2389 at a glance.

Uptime

8439

Days in orbit

Revolutions

≈ 13.8

Per day

Orbit

LEO

Low Earth Orbit

Inclination

83.0

Latest

Satellite identification and parameters

Extended collection of information and parameters for COSMOS 2389.

Object identification

Identified? True

Debris? False

Object name: COSMOS 2389

International designator: 2002-026A

Object number (NORAD): 27436

Object ID (CCSDS): 27436

Country: COMMONWEALTH OF INDEPENDENT STATES (CIS)

Current information (Y/N): Y

RCS size: LARGE

Orbital parameters

Period: 104.717 minutes

Inclination: 82.9502 deg

SMA: 7359.323 km

Apoapsis: 1015.782 km

Periapsis: 946.595 km

RAAN: 66.0989 deg

Eccentricy: 0.0047006

Argument of periapsis: 147.5565 deg

Mean anomaly: 264.6175 deg

Mean motion: 13.75136878 rev/day

Mean motion (dot): 0.00000035 rev/day2

B* drag term: 0.000020496 1/REarth

Two-line elements (TLE)

Creation date: July 4, 2025, 10:26 p.m.

Reference frame: TEME

Reference center: EARTH

Epoch: July 4, 2025, 7:43 p.m. UTC

TLE line 0: 0 COSMOS 2389

TLE line 1: 1 27436U 02026A 25185.82191005 .00000035 00000-0 20496-4 0 9992

TLE line 2: 2 27436 82.9502 66.0989 0047006 147.5565 264.6175 13.75136878159430

Live tracking on map

Real-time ground track for satellite COSMOS 2389.

In-orbit conjunctions

A list of the most updated potential collisions computed for object COSMOS 2389.

Target Orbit TCA Probability of collision Miss distance Type
FENGYUN 1C DEB SSO 2025-01-05 12:50:11 0.0007276849 377.0 (m) DEBRIS
PEGASUS DEB LEO 2024-11-08 05:48:48 0.0001598811 696.0 (m) DEBRIS
FENGYUN 1C DEB SSO 2024-10-08 03:19:26 0.0001709708 696.0 (m) DEBRIS

Associated space launch

Navigation satellite providing location information for the Tsiklon-B navigation system

COSMOS 2389 was lifted into orbit during the mission ‘Kosmos-3M | Parus 93’, on board a Kosmos-3M space rocket.

The launch took place on May 28, 2002, 6:14 p.m. from 132/1 (132L).

For more information about the launch, click the button.

Launch to space Kosmos-3M | Parus 93
Kosmos-3M | Parus 93

Agency: N/A

Status: Launch Successful

Launch date: May 28, 2002, 6:14 p.m. UTC

Rocket: Kosmos-3M

Launch pad: 132/1 (132L)

Location: Plesetsk Cosmodrome, Russian Federation

...

Latest news about this satellite

There are no fresh news available about this satellite. Check back as we update our databases every day.


Newsletter sign-up

Weekly statistics, charts and insights to help you stay on top of the space industry.